www.pogodaiklimat.ru

Погода и климат >> Архив погоды >> Великобритания >> Порт-Эллен


ПОГОДА в Порт-Эллене

  • Прогноз погоды в Порт-Эллене
  • Монитор погоды в Порт-Эллене

АРХИВ ПОГОДЫ в Порт-Эллене

Время (UTC), дата Ветер
(напр.,м/с)
 
Видим.   Явления Облачность Т
(С)
Тd
(С)
f
(%)
Тe
(С)
Тes
(С)
Комфортность P
(гПа)
Po
(гПа)
Тmin
(С)
Tmax
(С)
R
(мм)
R24
(мм)
S
(см)
01 13.09 З 8 22 км н/о +12.1 +9.3 83 +9 +9 1030.5 1028.8
02 13.09 З 8
{16}
24 км в посл. час дождь н/о +12.0 +9.3 84 +9 +9 1030.7 1029.0
03 13.09 З 8 24 км н/о +12.2 +9.2 82 +9 +9 1031.1 1029.4
04 13.09 З 6 19 км н/о +11.8 +9.1 84 +9 +9 1031.5 1029.8
05 13.09 З 6 20 км н/о +11.7 +8.7 82 +9 +9 1032.1 1030.4
06 13.09 З 6 19 км н/о +11.8 +9.2 84 +9 +9 1032.8 1031.1 +10.7 0.8
07 13.09 З 5 19 км н/о +12.1 +9.1 82 +10 +10 1033.2 1031.4
08 13.09 З 6 22 км н/о +13.1 +10.0 81 +11 +11 1033.7 1032.0
09 13.09 З 6 22 км н/о +13.5 +9.7 78 +11 +11 1034.4 1032.7
10 13.09 З 7 27 км н/о +14.7 +9.5 71 +13 +13 1035.1 1033.4
11 13.09 З 7 25 км н/о +15.0 +9.7 71 +13 +13 1035.3 1033.6
12 13.09 З 7 26 км н/о +15.4 +10.6 73 +14 +14 1035.7 1034.0
13 13.09 З 7 29 км н/о +14.8 +9.1 69 +13 +13 1036.0 1034.3
14 13.09 З 6 24 км н/о +15.5 +10.7 73 +14 +14 1035.6 1033.9
15 13.09 З 6 27 км н/о +15.2 +10.7 74 +14 +14 1035.5 1033.8
16 13.09 З 7 26 км н/о +15.0 +10.2 73 +13 +13 1035.5 1033.8
17 13.09 З 6 27 км н/о +14.6 +10.3 75 +13 +13 1035.5 1033.8
18 13.09 З 6 25 км н/о +13.6 +9.9 78 +12 +12 1035.4 1033.7 +15.9
19 13.09 З 4 22 км н/о +12.9 +10.2 84 +11 +11 1035.3 1033.5
20 13.09 ЮЗ 3 16 км н/о +11.4 +9.4 88 +10 +10 1035.1 1033.4
21 13.09 ЮВ 3 22 км н/о +9.8 +8.8 93 +8 +8 1034.7 1033.0
22 13.09 ЮВ 3 23 км н/о +9.4 +8.5 94 +7 +7 1034.2 1032.5
23 13.09 ЮВ 3 17 км н/о +9.2 +8.7 97 +7 +7 1034.4 1032.7
00 14.09 Ю 4 21 км н/о +11.5 +11.2 98 +9 +9 1033.7 1032.0
01 14.09 ЮВ 4 27 км н/о +10.5 +9.7 95 +8 +8 1032.9 1031.2
02 14.09 ЮВ 5 30 км слаб. морось с дождем н/о +11.6 +10.2 91 +9 +9 1032.0 1030.3
03 14.09 Ю 5 30 км в посл. час дождь н/о +12.4 +10.6 89 +10 +10 1030.4 1028.7
04 14.09 Ю 7 35 км слаб. ливневой дождь н/о +12.8 +9.6 81 +10 +10 1029.7 1028.0
05 14.09 Ю 6 40 км в посл. час дождь н/о +13.1 +9.2 77 +11 +11 1028.9 1027.2
06 14.09 Ю 7 35 км н/о +12.7 +9.8 83 +10 +10 1027.7 1026.0 +8.7 0.0
07 14.09 Ю 6 40 км н/о +13.3 +9.6 78 +11 +11 1027.5 1025.8
08 14.09 Ю 6 35 км н/о +13.4 +10.0 80 +11 +11 1027.0 1025.3
09 14.09 Ю 5 28 км н/о +13.8 +10.2 79 +12 +12 1026.5 1024.8
10 14.09 Ю 7 35 км н/о +14.4 +9.8 74 +12 +12 1025.9 1024.2
11 14.09 ЮЗ 9
{13}
35 км н/о +15.2 +9.7 70 +13 +13 1025.1 1023.4
12 14.09 ЮЗ 9
{13}
35 км н/о +15.5 +9.7 68 +13 +13 1024.3 1022.7
13 14.09 Ю 8 30 км н/о +15.5 +10.7 73 +14 +14 1023.8 1022.1
14 14.09 Ю 10
{13}
29 км н/о +16.0 +11.9 77 +14 +14 1023.0 1021.3
15 14.09 ЮЗ 9
{14}
27 км н/о +16.1 +12.5 79 +14 +14 1021.9 1020.3
16 14.09 ЮЗ 9
{14}
19 км н/о +16.4 +13.3 82 +15 +15 1021.0 1019.3
17 14.09 ЮЗ 9
{15}
3800 м дымка н/о +15.1 +14.3 95 +13 +13 1020.8 1019.1
18 14.09 ЮЗ 9
{14}
1500 м дымка н/о +14.8 +14.5 98 +12 +12 1020.5 1018.8 +16.6 0.4
19 14.09 ЮЗ 9
{13}
2200 м слаб. морось н/о +14.8 +14.7 99 +12 +12 1020.1 1018.4
20 14.09 ЮЗ 8 1300 м морось н/о +14.9 +14.8 99 +13 +13 1020.2 1018.5
21 14.09 СЗ 9
{16}
3700 м слаб. дождь н/о +12.6 +12.3 98 +9 +9 1021.1 1019.4
22 14.09 З 6 13 км в посл. час дождь н/о +12.9 +12.4 97 +10 +10 1021.4 1019.7
23 14.09 З 7 10 км н/о +13.3 +12.4 94 +11 +11 1021.6 1019.9
00 15.09 З 7 11 км н/о +13.2 +11.5 89 +11 +11 1021.3 1019.6 6
01 15.09 З 8 14 км н/о +12.8 +10.3 85 +10 +10 1021.5 1019.8
02 15.09 З 9 15 км н/о +12.2 +8.9 80 +9 +9 1021.7 1020.0
03 15.09 СЗ 9 16 км н/о +11.6 +7.8 77 +8 +8 1022.2 1020.4
04 15.09 СЗ 8 13 км н/о +11.7 +8.4 80 +8 +8 1022.1 1020.4
05 15.09 З 9 13 км н/о +11.9 +8.6 80 +8 +8 1022.1 1020.4
06 15.09 З 8 15 км н/о +12.0 +8.0 76 +9 +9 1022.3 1020.6 +11.4 6
07 15.09 СЗ 5 13 км в посл. час дождь н/о +11.6 +8.2 80 +9 +9 1022.8 1021.1
08 15.09 З 5 15 км в посл. час дождь н/о +12.2 +8.6 79 +10 +10 1022.8 1021.1
09 15.09 З 6 16 км н/о +12.8 +8.5 75 +10 +10 1023.6 1021.9
10 15.09 З 6 9000 м в посл. час дождь н/о +12.7 +10.0 84 +10 +10 1023.7 1022.0
11 15.09 З 8 14 км слаб. морось с дождем н/о +12.4 +10.3 87 +9 +9 1023.5 1021.8
12 15.09 З 7 10 км в посл. час дождь н/о +12.5 +10.2 86 +10 +10 1024.0 1022.3 0.0
13 15.09 З 6 16 км н/о +13.0 +10.3 84 +11 +11 1024.3 1022.6
14 15.09 З 4 21 км н/о +13.8 +9.4 75 +12 +12 1023.7 1022.0
15 15.09 З 5 22 км н/о +14.0 +9.7 75 +12 +12 1023.6 1022.0
16 15.09 З 5 22 км н/о +14.1 +9.8 75 +13 +13 1023.2 1021.5
17 15.09 СЗ 4 21 км н/о +13.0 +9.9 81 +11 +11 1022.9 1021.2
18 15.09 СЗ 5 19 км н/о +11.9 +9.1 83 +10 +10 1023.2 1021.5 +14.6 0.0
19 15.09 З 3 19 км н/о +11.8 +9.9 88 +10 +10 1023.1 1021.4
20 15.09 З 2 15 км н/о +10.4 +8.4 87 +9 +9 1023.3 1021.6
21 15.09 СВ 2 18 км н/о +7.2 +6.3 94 +5 +5 1023.4 1021.7
22 15.09 В 2 20 км н/о +5.9 +5.3 96 +3 +3 1023.3 1021.6
23 15.09 СВ 1 20 км н/о +5.4 +4.9 97 +4 +4 1023.5 1021.8
00 16.09 В 2 22 км н/о +4.6 +4.1 97 +2 +2 1023.5 1021.8
01 16.09 В 2 21 км н/о +4.8 +4.4 97 +2 +2 1023.3 1021.5
02 16.09 СВ 1 19 км н/о +4.9 +4.6 98 +3 +3 1023.0 1021.3
03 16.09 В 1 17 км н/о +4.0 +3.7 98 +2 +2 1023.0 1021.3
04 16.09 С 1 14 км н/о +5.7 +5.6 99 +4 +4 1022.8 1021.1
05 16.09 С 4 8000 м дымка н/о +9.2 +9.1 99 +6 +6 1022.7 1021.0
06 16.09 С 1 29 км н/о +8.4 +8.1 98 +8 +8 1022.7 1020.9 +3.9
07 16.09 В 1 30 км н/о +9.1 +9.0 99 +8 +8 1022.6 1020.9
08 16.09 З 6 30 км н/о +12.2 +10.0 86 +10 +10 1023.0 1021.3
09 16.09 З 5 26 км н/о +13.2 +10.3 83 +11 +11 1023.5 1021.8
10 16.09 З 7 35 км н/о +14.0 +8.8 71 +12 +12 1023.9 1022.2
11 16.09 З 6 27 км н/о +13.2 +9.6 79 +11 +11 1024.1 1022.4
12 16.09 СЗ 7 35 км в посл. час дождь н/о +13.7 +8.1 69 +11 +11 1024.3 1022.6 0.0
13 16.09 З 7 35 км н/о +13.9 +8.7 71 +12 +12 1024.4 1022.7
14 16.09 З 8 30 км н/о +13.6 +9.4 76 +11 +11 1024.4 1022.7
15 16.09 СЗ 6 35 км н/о +13.4 +9.5 77 +11 +11 1024.2 1022.5
16 16.09 З 8 30 км н/о +14.1 +8.8 70 +12 +12 1024.1 1022.4
17 16.09 З 7 30 км н/о +13.4 +8.8 74 +11 +11 1024.5 1022.8
18 16.09 З 7 29 км н/о +12.8 +9.0 78 +10 +10 1024.4 1022.7 +15.2 0.0
19 16.09 СЗ 7 28 км н/о +12.2 +8.7 79 +9 +9 1024.6 1022.9
20 16.09 СЗ 5 22 км н/о +11.2 +8.5 83 +8 +8 1024.8 1023.1
21 16.09 СЗ 4 23 км н/о +9.8 +9.1 95 +7 +7 1025.0 1023.3
22 16.09 СЗ 7 25 км н/о +11.6 +8.9 83 +8 +8 1025.1 1023.4
23 16.09 СЗ 7 25 км н/о +11.7 +8.6 81 +9 +9 1025.2 1023.5
00 17.09 СЗ 7 26 км н/о +12.4 +9.0 80 +9 +9 1024.8 1023.1
01 17.09 СЗ 6 23 км в посл. час дождь н/о +11.4 +8.9 85 +9 +9 1025.0 1023.3
02 17.09 СЗ 5 22 км н/о +11.4 +8.7 83 +9 +9 1025.1 1023.4
03 17.09 СЗ 7 27 км н/о +12.1 +8.4 78 +9 +9 1025.1 1023.4
04 17.09 СЗ 6 29 км н/о +11.6 +8.5 81 +9 +9 1025.2 1023.5
05 17.09 СЗ 5 30 км н/о +10.1 +7.1 82 +7 +7 1025.4 1023.7
06 17.09 С 4 26 км н/о +8.6 +6.9 89 +6 +6 1025.7 1024.0 +8.3 0.0
07 17.09 СЗ 4 27 км н/о +10.4 +8.4 87 +8 +8 1026.5 1024.7
08 17.09 СЗ 4 27 км н/о +12.2 +9.0 81 +10 +10 1026.8 1025.0
09 17.09 СЗ 4 28 км н/о +12.7 +7.6 71 +11 +11 1027.5 1025.8
10 17.09 СЗ 5 30 км н/о +13.4 +6.8 64 +12 +12 1027.8 1026.1
11 17.09 СЗ 5 26 км н/о +12.7 +7.7 72 +11 +11 1028.1 1026.4
12 17.09 СЗ 5 24 км н/о +13.2 +8.6 74 +11 +11 1028.4 1026.7
13 17.09 СЗ 5 29 км н/о +14.0 +8.2 68 +12 +12 1028.4 1026.7
14 17.09 СЗ 5 27 км н/о +14.2 +8.3 68 +13 +13 1028.3 1026.6
15 17.09 СЗ 5 28 км н/о +13.6 +8.1 69 +12 +12 1028.4 1026.7
16 17.09 СЗ 4 29 км н/о +13.9 +8.9 72 +12 +12 1028.4 1026.7
17 17.09 С 4 29 км н/о +13.6 +8.0 69 +12 +12 1028.3 1026.6
18 17.09 СЗ 3 30 км н/о +12.5 +8.4 76 +11 +11 1028.4 1026.7 +15.0
19 17.09 С 2 30 км н/о +9.6 +6.9 83 +8 +8 1028.7 1026.9
20 17.09 СВ 2 25 км н/о +7.2 +6.2 93 +5 +5 1028.9 1027.2
21 17.09 В 1 20 км н/о +7.4 +6.7 95 +6 +6 1029.2 1027.5
22 17.09 В 1 26 км н/о +9.3 +8.9 97 +8 +8 1029.2 1027.5
23 17.09 ЮВ 2 29 км н/о +9.8 +9.2 96 +8 +8 1029.1 1027.4
00 18.09 ЮВ 2 30 км н/о +10.4 +9.1 92 +9 +9 1029.0 1027.3
01 18.09 ЮВ 2 26 км н/о +9.2 +8.2 93 +7 +7 1028.9 1027.2
02 18.09 ЮВ 3 29 км н/о +10.7 +9.4 92 +9 +9 1028.7 1027.0
03 18.09 ЮВ 2 19 км н/о +11.2 +10.0 92 +10 +10 1028.6 1026.8
04 18.09 ЮВ 3 28 км н/о +11.2 +10.1 93 +9 +9 1028.2 1026.5
05 18.09 ЮЗ 4 30 км н/о +12.8 +10.6 86 +11 +11 1028.4 1026.7
06 18.09 З 4 30 км н/о +13.0 +10.8 86 +11 +11 1028.7 1027.0 +7.0
07 18.09 З 4 30 км н/о +13.1 +11.3 89 +11 +11 1028.9 1027.1
08 18.09 ЮЗ 4 29 км н/о +13.4 +11.6 89 +12 +12 1029.1 1027.4
09 18.09 З 4 35 км н/о +14.5 +11.9 84 +13 +13 1029.5 1027.8
10 18.09 З 6 35 км н/о +14.3 +11.5 83 +12 +12 1029.7 1028.0
11 18.09 З 5 13 км дым н/о +13.5 +12.5 94 +12 +12 1030.1 1028.4
12 18.09 З 5 30 км н/о +13.9 +11.9 88 +12 +12 1030.2 1028.5
13 18.09 З 4 24 км н/о +13.6 +12.7 94 +12 +12 1030.3 1028.6
14 18.09 З 6 28 км н/о +14.5 +13.1 91 +13 +13 1030.2 1028.5
15 18.09 З 6 26 км н/о +14.4 +12.6 89 +13 +13 1030.2 1028.5
16 18.09 З 5 19 км н/о +13.9 +12.7 92 +12 +12 1030.1 1028.4
17 18.09 СЗ 5 40 км н/о +13.5 +12.8 96 +12 +12 1030.2 1028.5
18 18.09 С 3 45 км н/о +13.4 +12.4 94 +12 +12 1030.2 1028.5 +15.2
19 18.09 С 1 40 км н/о +13.1 +12.4 96 +13 +13 1030.5 1028.8
20 18.09 С 3 30 км н/о +11.9 +11.3 96 +10 +10 1030.9 1029.1
21 18.09 СВ 1 22 км н/о +11.8 +11.6 99 +11 +11 1031.1 1029.4
22 18.09 ЮВ 1 12 км н/о +12.1 +11.9 99 +13 +13 1031.2 1029.4
23 18.09 В 1 14 км дымка н/о +12.2 +12.0 99 +12 +12 1031.2 1029.5
00 19.09 штиль 0 21 км н/о +11.8 +11.6 99 +11 +11 1031.2 1029.5
01 19.09 ЮВ 1 45 км н/о +11.9 +11.8 99 +12 +12 1030.8 1029.1
02 19.09 Ю 1 40 км н/о +12.2 +12.0 99 +12 +12 1030.4 1028.7
03 19.09 штиль 0 30 км н/о +10.7 +10.0 95 +10 +10 1030.3 1028.6
04 19.09 ЮВ 2 26 км н/о +9.5 +9.2 98 +8 +8 1030.2 1028.5
05 19.09 В 1 23 км н/о +10.9 +10.6 98 +10 +10 1030.1 1028.4
06 19.09 ЮВ 2 29 км н/о +11.8 +11.5 98 +11 +11 1030.4 1028.6 +8.7
07 19.09 ЮВ 1 24 км н/о +12.2 +11.8 97 +12 +12 1030.4 1028.6
08 19.09 ЮВ 2 30 км н/о +13.2 +12.6 96 +12 +12 1030.6 1028.9
09 19.09 Ю 3 25 км н/о +14.0 +12.8 92 +13 +13 1030.8 1029.1
10 19.09 ЮЗ 4 10 км н/о +13.5 +12.2 92 +12 +12 1030.9 1029.1
11 19.09 З 4 14 км н/о +13.4 +12.7 96 +12 +12 1030.9 1029.2
12 19.09 З 4 15 км н/о +14.2 +12.5 90 +13 +13 1030.8 1029.0
13 19.09 З 4 14 км н/о +14.5 +12.6 88 +13 +13 1030.5 1028.8
14 19.09 З 3 30 км н/о +15.6 +12.8 83 +15 +15 1030.1 1028.4
15 19.09 З 2 45 км н/о +16.7 +12.0 74 +17 +17 1029.9 1028.2
16 19.09 З 2 45 км н/о +16.8 +11.9 73 +17 +17 1029.4 1027.7
17 19.09 Ю 2 30 км н/о +16.0 +11.6 75 +16 +16 1029.0 1027.3
18 19.09 ЮВ 3 17 км н/о +13.9 +12.3 90 +13 +13 1028.8 1027.1 +17.2
19 19.09 ЮВ 3 25 км н/о +11.7 +10.6 93 +10 +10 1028.8 1027.1
20 19.09 ЮВ 3 40 км н/о +10.8 +9.5 92 +9 +9 1028.8 1027.1
21 19.09 ЮВ 3 20 км н/о +11.4 +10.5 94 +9 +9 1028.7 1027.0
22 19.09 ЮВ 4 23 км н/о +13.1 +11.7 91 +11 +11 1028.5 1026.8
23 19.09 ЮВ 3 19 км н/о +11.8 +10.7 93 +10 +10 1028.1 1026.4
00 20.09 ЮВ 4 21 км н/о +11.9 +10.8 93 +10 +10 1027.7 1026.0
01 20.09 ЮВ 5 22 км н/о +12.6 +11.5 93 +10 +10 1027.3 1025.6

 

Местоположение метеостанции Порт-Эллен (Великобритания): широта 55.68 долгота -6.25 высота над уровнем моря 17 м.

В архиве по умолчанию представлена погода в Порт-Эллене за последнюю неделю. Архивные данные за месяц целиком и за предыдущие месяцы, начиная с января 2011 года, Вы можете получить, выбрав интересующий диапазон дат из раскрывающегося списка и нажав кнопку "Ввод!".


*Определитесь, кто Вы:
робот инопланетянин человек

Внимание! Время в таблицах - всемирное. Для получения местного времени необходимо прибавить поправку, которая равна 0 ч.

Смотрите также архив погоды в соседних городах и на ближайших метеорологических станциях:

Погода в Макрайханише (Великобритания) (44 км)
Погода в Баллипатрик Форест (Великобритания) (56 км)
Погода на Магиллигане (Великобритания) (73 км)
Погода в Малин Хед (Ирландия) (77 км)
Погода в Портгленоне (Великобритания) (91 км)
Погода на Тири (Великобритания) (99 км)
Погода в Прествике (Великобритания) (106 км)
Погода в Глазго (Великобритания) (110 км)
Погода на Озере Lough Fea (Великобритания) (113 км)
Погода в Белфасте (Великобритания) (115 км)

Пояснения к столбцам:

Ветер - указаны скорость ветра в м/с - средняя за 10 мин, порывы в срок и между сроками (в фигурных скобках) и направление, откуда дует ветер: С - северный, СВ - северо-восточный, В - восточный, ЮВ - юго-восточный, Ю - южный, ЮЗ - юго-западный, З - западный, СЗ - северо-западный.
Видимость - горизонтальная дальность видимости в метрах или километрах. При видимости от 1 до 10 км при отсутствии осадков обычно наблюдается дымка, при ухудшении видимости до 1 км и менее - туман. В сухую погоду видимость может ухудшаться дымом, пылью или мглою.
Явления - указаны атмосферные явления, наблюдавшиеся в срок или в последний час перед сроком; фигурными скобками обозначены явления, наблюдавшиеся между сроками (за 1-3 часа до срока); квадратными скобками обозначены град или гололедные отложения с указанием их диаметра в мм.
Облачность - указаны через наклонную черту общая и нижняя облачность в баллах и высота нижней границы облаков в метрах; квадратными скобками обозначены формы облаков: Ci - перистые, Cs - перисто-слоистые, Cc - перисто-кучевые, Ac - высококучевые, As - высокослоистые, Sc - слоисто-кучевые, Ns - слоисто-дождевые, Cu - кучевые, Cb - кучево-дождевые. Подробнее классификацию облаков см. в Атласе облаков (PDF).
T - Температура воздуха - температура, измеренная на высоте 2 м над землей.
Td - Температура точки росы - температура, при понижении до которой содержащийся в воздухе водяной пар достигнет насыщения.
f - Относительная влажность воздуха - влажноcть воздуха, измеренная на высоте 2 м над землей.
Te - Эффективная температура - температура, которую ощущает одетый по сезону человек в тени. Характеристика душности погоды. При расчете учитывается влияние влажности воздуха и скорости ветра на теплоощущения человека.
Tes - Эффективная температура на солнце - температура, которую ощущает человек, с поправкой на солнечный нагрев. Характеристика знойности погоды. Зависит от высоты солнца над горизонтом, облачности и скорости ветра. Ночью, в пасмурную погоду, а также при ветре 12 м/с и более поправка равна нулю.
P - Атмосферное давление - приведенное к уровню моря атмосферное давление.
Po - Атмосферное давление - измеренное на уровне метеостанции атмосферное давление.
Tmin - Минимальная температура - минимум температуры воздуха на высоте 2 м над землей.
Tmax - Максимальная температура - максимум температуры воздуха на высоте 2 м над землей.
R - Количество осадков - Количество выпавших осадков за период времени, мм. При наведении курсора мыши на число - период времени, за который выпало указанное количество осадков.
R24 - Количество осадков - Количество выпавших осадков за 24 часа, мм.
S - Снежный покров - Высота снежного покрова, см. При наведении курсора мыши на число - состояние снежного покрова и степень покрытия местности в баллах.